{"data":{"norad_id":65631,"epoch":"2026-05-24T23:01:35.373216Z","epoch_age_seconds":81646,"freshness":"FRESH","line1":"1 65631U 25210K   26144.95943719  .00013331  00000+0  40489-3 0  9993","line2":"2 65631  53.1586 311.7298 0001065  89.3795 270.7329 15.34406095 39419","mean_motion":15.34406095,"eccentricity":0.0001065,"inclination_deg":53.1586,"raan_deg":311.7298,"arg_perigee_deg":89.3795,"mean_anomaly_deg":270.7329,"bstar":0.00040489,"rev_number":3941,"period_min":93.847385297306,"perigee_km":461.95657708633,"apogee_km":463.41367219888,"semimajor_km":6840.8221246426,"source":"CELESTRAK","updated_at":"2026-05-25T13:38:20.882195Z"}}